Torna al catalogo

DELTA 1 DEB

AttivoHEO
NORAD 19478·DEBRIS·🇺🇸 United States

Lanciato Aug 3, 1981 da Vandenberg Space Force Base

Loading…

Prossimi Passaggi (prossime 24 ore)

TLE

AggiornatoSource: Space-Track

Epoca: Sep 9, 2026, 14:50 UTC

1 19478U 81070L   26252.61817947  .00000218  00000-0  78614-3 0  9995
2 19478  90.8689  49.3088 6072126 335.7969   4.7599  3.72734543435429

Traccia DELTA 1 DEB in tempo reale con AllMySat

Download on the App Store